Погода в Уонгамате

Новая Зеландия     37°12′25″S   175°52′16″E
темп.,
°C
ветер,
м/с
пор.,
м/с
влажн.,
%
обл.,
%
осадки,
мм/ч
давл.,
гПа
погр.,
м
15 апреля, чт
чт1500:00+10зюз129930 0.1 100740
03:00+8зюз229930 0.0 100849
06:00+8з129922 0.0 100942
09:00+12з159391 0.0 1010260
12:00+18зюз486293 0.0 10091474
15:00+19зюз495951 0.1 10071639
18:00+15з310795 0.1 1008992
21:00+13з3119017 0.0 1009684
16 апреля, пт
пт1600:00+14з4119330 0.1 1009944
03:00+12з179935 0.1 1009306
06:00+11з139928 0.2 101067
09:00+15з29861 0.1 1011737
12:00+20зюз48549 0.2 10101746
15:00+21зюз410444 0.0 10081825
18:00+16з39730 0.0 1009918
21:00+14з211901 0.0 1010646
17 апреля, сб
сб1700:00+13з210967 0.1 1009574
03:00+13з210957 0.1 1009504
06:00+12зюз3109584 0.7 1009805
09:00+12зюз3118191 0.4 10111087
12:00+17зюз510494 0.5 10111782
15:00+18юз48435 0.0 10102022
18:00+12зюз39700 0.0 1013521
21:00+8з12940 0.0 101658
18 апреля, вс
вс1800:00+7зюз23940 0.0 101763
03:00+6з119516 0.0 101727
06:00+6зюз119249 0.0 101828
09:00+13з156288 0.0 1018318
12:00+16зюз265898 0.0 10181479
15:00+16зюз3657100 0.0 10171474
18:00+12з267789 0.0 1017179
21:00+10з129799 0.1 101945
19 апреля, пн
пн1900:00+9зсз119784 0.1 101927
03:00+10зсз129074 0.0 101867
06:00+11зсз138787 0.0 1018116
09:00+15з157384 0.1 1020663
12:00+18зюз345392 0.1 10191507
15:00+18зсз235317 0.0 10171386
18:00+12зсз1184100 0.0 101826
21:00+10юз1195100 0.0 101914